Csl Tecumseh — C6ZJ6 — position and weather

sailwx.info

Track history (hours):
 
Tides and Currents Weather Stations Pressure Air Temp Water Temp Dewpoint Dewpoint Depression Visibility Wind Speed Wind Dir Waves Ship Positions

Csl Tecumseh

Last reported at 2017-Nov-19 10:30 UTC. Time now 2017-Nov-19 10:33 UTC.
Position N 32°49' W 117°45'.

Length 229 m; draft 11 m.

Type: Cargo ship. MMSI: 311056900.

Date/timePositionNaut miles runAvg speedWind from/ knotsBaromVisibWave heightAir tempDewpointWater temp
2017-Nov-19 10:30N 32°49' W 117°45'611.8
2017-Nov-19 10:00N 32°44' W 117°41'611.5
2017-Nov-19 09:30N 32°38' W 117°39'611.5
2017-Nov-19 09:00N 32°33' W 117°37'611.8
2017-Nov-19 08:30N 32°27' W 117°34'1411.8
2017-Nov-19 07:20N 32°14' W 117°30'411.6
2017-Nov-19 07:00N 32°10' W 117°28'611.6
2017-Nov-19 06:30N 32°05' W 117°26'611.4
2017-Nov-19 06:00N 31°59' W 117°24'611.3
2017-Nov-19 05:30N 31°54' W 117°22'611.5
2017-Nov-19 04:58N 31°48' W 117°20'511.2
2017-Nov-19 04:30N 31°43' W 117°18'610.9
2017-Nov-19 04:00N 31°38' W 117°16'4111.1
2017-Nov-19 00:21N 30°60' W 117°01'411.5
2017-Nov-19 00:00N 30°56' W 116°59'611.6
2017-Nov-18 23:30N 30°50' W 116°57'611.2
2017-Nov-18 23:00N 30°45' W 116°55'711.0
2017-Nov-18 22:20N 30°38' W 116°52'310.8
2017-Nov-18 22:00N 30°35' W 116°51'610.7
2017-Nov-18 21:27N 30°29' W 116°49'  
Track history (hours):
 
Tides and Currents Weather Stations Pressure Air Temp Water Temp Dewpoint Dewpoint Depression Visibility Wind Speed Wind Dir Waves Ship Positions

Csl Tecumseh

Last reported at 2017-Nov-19 10:30 UTC. Time now 2017-Nov-19 10:33 UTC.
Position N 32°49' W 117°45'.

Length 229 m; draft 11 m.

Type: Cargo ship. MMSI: 311056900.

Date/timePositionNaut miles runAvg speedWind from/ knotsBaromVisibWave heightAir tempDewpointWater temp
2017-Nov-19 10:30N 32°49' W 117°45'611.8
2017-Nov-19 10:00N 32°44' W 117°41'611.5
2017-Nov-19 09:30N 32°38' W 117°39'611.5
2017-Nov-19 09:00N 32°33' W 117°37'611.8
2017-Nov-19 08:30N 32°27' W 117°34'1411.8
2017-Nov-19 07:20N 32°14' W 117°30'411.6
2017-Nov-19 07:00N 32°10' W 117°28'611.6
2017-Nov-19 06:30N 32°05' W 117°26'611.4
2017-Nov-19 06:00N 31°59' W 117°24'611.3
2017-Nov-19 05:30N 31°54' W 117°22'611.5
2017-Nov-19 04:58N 31°48' W 117°20'511.2
2017-Nov-19 04:30N 31°43' W 117°18'610.9
2017-Nov-19 04:00N 31°38' W 117°16'4111.1
2017-Nov-19 00:21N 30°60' W 117°01'411.5
2017-Nov-19 00:00N 30°56' W 116°59'611.6
2017-Nov-18 23:30N 30°50' W 116°57'611.2
2017-Nov-18 23:00N 30°45' W 116°55'711.0
2017-Nov-18 22:20N 30°38' W 116°52'310.8
2017-Nov-18 22:00N 30°35' W 116°51'610.7
2017-Nov-18 21:27N 30°29' W 116°49'  

Dump ship's entire track history